Flag for U.S.A. Weather past 2 weeks in Woodstock, New York, U.S.A.

Now
86 °F

Sunny.


Feels Like: 85 °F
Forecast: 63 / 86 °F
Wind: No wind

Location: Dutchess County Airport

Current Time: Sep 1, 2015 at 5:20:48 PM

Latest Report: Sep 1, 2015 at 4:53 PM


Visibility: 10 mi

Pressure: 29.99 "Hg

Humidity: 40%

Dew point: 59 °F

Location of WoodstockLocation

Historic Weather in Woodstock — Graph

°F

Woodstock temperature yesterday

Maximum temperature yesterday: 90 °F (at 2:53 PM)
Minimum temperature yesterday: 66 °F (at 4:53 AM)
Average temperature yesterday: 77 °F

Past Weeks' High & Low Weather Summary

 TemperatureHumidityPressure
High94 °F (Aug 17, 4:53 PM)93% (Aug 20, 5:53 AM)30.22 "Hg (Aug 20, 5:53 AM)
Low52 °F (Aug 28, 5:53 AM)32% (Aug 17, 4:53 PM)29.78 "Hg (Aug 25, 4:53 PM)
Average74 °F69%30.00 "Hg
* Reported Aug 17 3:53 PM — Sep 1 3:53 PM, Woodstock, Weather by CustomWeather, © 2015

Note: Actual official high and low records may vary slightly from our data, if they occured in-between our weather recording intervals... More about our weather records

Advertising

Woodstock weather history for previous 24 hours

 ConditionsComfort  
Time TempWeatherWind HumidityBarometerVisibility
3:53 PM
Tue, Sep 1
86 °FSunny.No wind40%30.00 "Hg10 mi
2:53 PM86 °FPassing clouds.7 mph43%30.02 "Hg10 mi
1:53 PM85 °FScattered clouds.No wind45%30.03 "Hg10 mi
12:53 PM84 °FScattered clouds.3 mph51%30.04 "Hg10 mi
11:53 AM83 °FPassing clouds.5 mph51%30.05 "Hg10 mi
10:53 AM81 °FSunny.7 mph58%30.06 "Hg10 mi
9:53 AM78 °FSunny.9 mph64%30.06 "Hg10 mi
8:53 AM73 °FSunny.6 mph76%30.05 "Hg10 mi
7:53 AM67 °FFog.No wind90%30.04 "Hg6 mi
6:53 AM63 °FFog.No wind93%30.03 "Hg5 mi
5:53 AM63 °FFog.3 mph93%30.01 "Hg5 mi
4:53 AM64 °FClear.No wind90%30.00 "Hg7 mi
3:53 AM65 °FClear.No wind91%29.99 "Hg7 mi
2:53 AM66 °FFog.No wind93%29.99 "Hg6 mi
1:53 AM67 °FClear.No wind93%29.99 "Hg7 mi
12:53 AM68 °FClear.No wind90%29.99 "Hg9 mi
10:53 PM
Mon, Aug 31
71 °FClear.No wind90%29.97 "Hg9 mi
9:53 PM73 °FClear.No wind84%29.95 "Hg10 mi
8:53 PM75 °FClear.No wind79%29.95 "Hg10 mi
7:53 PM79 °FSunny.No wind69%29.93 "Hg10 mi
6:53 PM86 °FSunny.6 mph51%29.91 "Hg10 mi
5:53 PM89 °FSunny.9 mph43%29.91 "Hg10 mi
Weather by CustomWeather, © 2015

See weather overviewHow to use our weather pages